Find Starlink 32105

NORAD ID: 59689 Int'l Des: 2024-086 Owner: SPXS Country: US Constellation: starlink operational
LEOCIRCULAR

实时位置

正在加载3D地球...

关于 Starlink 32105

正在加载描述...

即将过境

Passes for default location (London). Set your location on the main map for personalized predictions.

高度历史

Loading altitude history...

两行轨道根数

1 59689U 24086H 26125.63062185 .00002560 00000-0 10248-3 0 9995
2 59689 43.0010 98.0593 0000303 323.3883 36.6948 15.27587727112828
Epoch: May 5, 2026 • Age: 9 hours

当前状态

高度 493.4 km
速度 7.62 km/s
星下点 -35.85°S, 102.18°E
发射日期 May 8, 2024
运行时间 1.9 years
类型 internet

技术详情

分类 Payload
质量 730.00 kg
干质量 700.00 kg
总质量 730.00 kg
长度 0.30 m
直径 4.10 m
跨度 29.00 m
形状 Box + pan
制造商 SPXS
平台类型 Starlink V2M
阶段状态 In Orbit
所有者/国家 SPXS/US

Most Searched